Location: Bodest
(46.3000°N, 22.5667°E)
Time: 14:34:17
(UTC+00:00)

SL-19 R/B - Pass Details

Date: 05 June 2022
Orbit: 874 x 1208 km, 100.6° (Epoch: 03 July)

Event Time Altitude Azimuth Distance (km) Brightness Sun altitude
Rises 19:56:21 0° 7° (N) 4,053 8.5 -13.0°
Reaches altitude 10° 19:59:53 10° 350° (N) 3,123 8.2 -13.3°
Maximum altitude 20:04:16 18° 312° (NW) 2,611 7.8 -13.8°
Drops below altitude 10° 20:08:42 10° 274° (W) 3,155 7.7 -14.2°
Sets 20:12:19 0° 256° (WSW) 4,111 8.0 -14.5°
